User: anonymous   Login
Location: Unspecified
(0.0000°N, 0.0000°E)
Time: 09:17:22
(UTC+00:00)
Language:

SCD-1 - Orbit

View from above orbital plane
View from above orbital plane
View from above satellite
View from above satellite

Ground track
Ground track

The orbit data is extracted from the following two-line orbital elements,

1 22490U 93009B   17268.70845749 +.00000236 +00000-0 +14895-4 0  9998
2 22490 024.9708 044.7821 0042911 316.2726 136.7667 14.44498420299870
Epoch (UTC): 25 September 2017 17:00:10
Eccentricity: 0.0042911
inclination: 24.9708°
perigee height: 713 km
apogee height: 774 km
right ascension of ascending node: 44.7821°
argument of perigee: 316.2726°
revolutions per day: 14.44498420
mean anomaly at epoch: 136.7667°
orbit number at epoch: 29987

The dashed part of the orbit path shows where the satellite is in the earth's shadow,  

DLR